DW4666 Weather Reports


Display with metric or nautical units.
time (UTC)temp
F
wind
direction
speed
MPH
gust
MPH
rain 1hr
in
rain 24hr
in
rain mn
in
humidity
%
barometer
mb
20260503193603 56 40 0.0 1.0 0.00 0.00 0.00 64 1016.1
20260503192703 57 33 0.0 2.0 0.00 0.00 0.00 62 1016.1
20260503192014 57 29 0.0 2.0 0.00 0.00 0.00 62 1015.9
20260503190903 58 37 0.0 1.0 0.00 0.00 0.00 60 1015.9
20260503190003 59 22 0.0 1.0 0.00 0.00 0.00 59 1016.1
20260503185614 60 0 0.0 1.0 0.00 0.00 0.00 58 1016.1
20260503184503 61 94 0.0 2.0 0.00 0.00 0.00 55 1015.8
20260503183603 62 48 0.0 1.0 0.00 0.00 0.00 54 1015.8
20260503182703 63 176 0.0 1.0 0.00 0.00 0.00 50 1015.9
20260503181803 64 115 0.0 1.0 0.00 0.00 0.00 47 1015.7
20260503181112 66 101 0.0 2.0 0.00 0.00 0.00 45 1015.9
20260503180003 67 107 0.0 2.0 0.00 0.00 0.00 41 1015.6
20260503175403 68 112 0.0 2.0 0.00 0.00 0.00 40 1015.7
20260503174503 69 133 0.0 2.0 0.00 0.00 0.00 38 1015.6
20260503173603 70 0 0.0 1.0 0.00 0.00 0.00 36 1015.5
20260503172703 71 100 0.0 1.0 0.00 0.00 0.00 35 1015.5
20260503171803 73 176 0.0 2.0 0.00 0.00 0.00 33 1015.5
20260503171114 73 164 1.0 3.0 0.00 0.00 0.00 33 1015.8
20260503150903 76 186 4.0 11.0 0.00 0.00 0.00 27 1016.5
20260503140212 77 204 4.0 7.0 0.00 0.00 0.00 26 1017.1
20260503131113 76 212 4.0 9.0 0.00 0.00 0.00 29 1017.9
20260503100213 72 173 4.0 12.0 0.00 0.00 0.00 35 1019.6
20260503081113 67 154 2.0 6.0 0.00 0.00 0.00 45 1020.2
20260503072703 64 156 3.0 6.0 0.00 0.00 0.00 49 1020.2
20260503071803 62 182 3.0 8.0 0.00 0.00 0.00 52 1020.4
20260503071112 62 155 3.0 6.0 0.00 0.00 0.00 53 1020.4
20260503054503 56 134 1.0 4.0 0.00 0.00 0.00 62 1020.1
20260503053603 56 129 2.0 5.0 0.00 0.00 0.00 63 1020.4
20260503052703 56 118 1.0 4.0 0.00 0.00 0.00 62 1020.4
20260503051803 54 115 1.0 3.0 0.00 0.00 0.00 65 1020.4
20260503051113 54 116 1.0 3.0 0.00 0.00 0.00 65 1020.2
20260503050003 52 122 1.0 5.0 0.00 0.00 0.00 67 1020.4
20260503045403 50 129 1.0 3.0 0.00 0.00 0.00 71 1020.5
20260503044503 50 117 1.0 3.0 0.00 0.00 0.00 72 1020.2
20260503043603 48 124 1.0 3.0 0.00 0.00 0.00 74 1020.5
20260503042703 46 130 1.0 2.0 0.00 0.00 0.00 78 1020.2
20260503041803 44 122 1.0 2.0 0.00 0.00 0.00 83 1020.2
20260503040903 44 84 1.0 2.0 0.00 0.00 0.00 80 1020.1
20260503040003 40 47 0.0 2.0 0.00 0.00 0.00 89 1020.4
20260503035403 40 56 0.0 2.0 0.00 0.00 0.00 92 1020.5
20260503034503 39 49 0.0 2.0 0.00 0.00 0.00 93 1020.2
20260503033603 38 63 0.0 1.0 0.00 0.00 0.00 95 1020.1
20260503032703 37 87 0.0 2.0 0.00 0.00 0.00 95 1019.9
20260503031803 37 80 0.0 2.0 0.00 0.00 0.00 95 1020.1
20260503031113 37 52 0.0 2.0 0.00 0.00 0.00 95 1020.2
20260503030214 37 100 0.0 2.0 0.00 0.00 0.00 96 1020.2
20260503025403 37 87 1.0 2.0 0.00 0.00 0.00 95 1020.0
20260503024713 37 84 0.0 2.0 0.00 0.00 0.00 95 1020.1
20260503023603 38 68 0.0 2.0 0.00 0.00 0.00 95 1020.0
20260503022703 37 101 0.0 2.0 0.00 0.00 0.00 95 1020.2
20260503021803 38 82 0.0 1.0 0.00 0.00 0.00 95 1019.9
20260503021112 38 81 0.0 1.0 0.00 0.00 0.00 95 1020.2
20260503020214 39 139 1.0 2.0 0.00 0.00 0.00 95 1020.4
20260503015403 39 133 1.0 2.0 0.00 0.00 0.00 95 1020.1
20260503014503 38 79 0.0 1.0 0.00 0.00 0.00 92 1020.0
20260503013603 39 78 1.0 2.0 0.00 0.00 0.00 92 1020.5
20260503012703 39 60 0.0 2.0 0.00 0.00 0.00 92 1020.7
20260503011803 39 82 0.0 1.0 0.00 0.00 0.00 92 1020.8
20260503010903 39 79 0.0 1.0 0.00 0.00 0.00 91 1020.6
20260503010003 39 79 0.0 2.0 0.00 0.00 0.00 92 1020.5
20260503005403 39 85 0.0 2.0 0.00 0.00 0.00 91 1020.6
20260503004503 40 103 0.0 2.0 0.00 0.00 0.00 91 1020.7
20260503003603 40 78 0.0 2.0 0.00 0.00 0.00 90 1020.7
20260503002703 41 51 0.0 1.0 0.00 0.00 0.00 90 1020.6
20260503001803 41 68 0.0 2.0 0.00 0.00 0.00 89 1020.6
20260503001114 42 57 0.0 2.0 0.00 0.00 0.00 89 1020.8
20260503000003 41 68 0.0 2.0 0.00 0.00 0.00 89 1020.6
20260502235403 42 65 0.0 2.0 0.00 0.00 0.00 89 1020.7
20260502234503 42 65 0.0 2.0 0.00 0.00 0.00 89 1020.7
20260502233603 42 113 0.0 1.0 0.00 0.00 0.00 89 1021.0
20260502232912 42 96 0.0 1.0 0.00 0.00 0.00 88 1020.8
20260502231803 42 103 0.0 1.0 0.00 0.00 0.00 87 1020.8
20260502230903 43 83 0.0 2.0 0.00 0.00 0.00 86 1020.8
20260502230003 44 69 1.0 2.0 0.00 0.00 0.00 87 1021.0
20260502225403 44 63 0.0 1.0 0.00 0.00 0.00 85 1021.0
20260502224503 44 43 0.0 2.0 0.00 0.00 0.00 85 1021.2
20260502223813 44 83 0.0 2.0 0.00 0.00 0.00 85 1021.1
20260502222912 45 8 0.0 2.0 0.00 0.00 0.00 85 1021.1
20260502221803 45 121 0.0 1.0 0.00 0.00 0.00 85 1021.2
20260502220903 46 32 0.0 1.0 0.00 0.00 0.00 83 1021.1
20260502220003 45 0 0.0 1.0 0.00 0.00 0.00 85 1021.1
20260502215403 45 97 0.0 1.0 0.00 0.00 0.00 84 1021.2
20260502214713 46 84 0.0 1.0 0.00 0.00 0.00 83 1021.3
20260502213603 47 50 0.0 1.0 0.00 0.00 0.00 82 1021.2
20260502212808 47 48 0.0 1.0 0.00 0.00 0.00 81 1021.2
20260502212013 47 61 0.0 1.0 0.00 0.00 0.00 82 1021.3
20260502210903 48 0 0.0 1.0 0.00 0.00 0.00 79 1021.4
20260502210003 47 85 0.0 2.0 0.00 0.00 0.00 80 1021.4
20260502205403 48 112 0.0 2.0 0.00 0.00 0.00 79 1021.3
20260502204503 49 88 0.0 2.0 0.00 0.00 0.00 79 1021.6
20260502203603 49 97 0.0 1.0 0.00 0.00 0.00 77 1021.6
20260502202703 50 69 0.0 2.0 0.00 0.00 0.00 76 1021.6
20260502201803 51 59 0.0 2.0 0.00 0.00 0.00 75 1021.7
20260502200903 51 14 0.0 1.0 0.00 0.00 0.00 74 1021.8
20260502200213 51 56 0.0 1.0 0.00 0.00 0.00 73 1021.8
20260502195403 51 118 0.0 1.0 0.00 0.00 0.00 73 1021.4
20260502194503 52 61 0.0 1.0 0.00 0.00 0.00 72 1021.7